KLM116 TNCB-KIAH

Flight info

Callsign KLM116
Flight time 4h 43m
Altitude 38000
Route PJG1Q PJG UL220 ABA UL674 KEHLI A766 KELPP SOULL1
Aircraft A359/H-SDE2E3GHIJ3J4J5LM1ORWXY/LB1D1

Departure

Time 2026-04-25 18:48
Airport Flamingo International Airport (TNCB)

Arrival

Time 2026-04-25 23:31
Airport George Bush Intercontinental Airport (KIAH)
Time Latitude Longitude Altitude Speed Heading
2026-04-25 18:01 12.13323 -68.27496 34 ft 0 kts
2026-04-25 18:36 12.13319 -68.27496 34 ft 3 kts
2026-04-25 18:37 12.13292 -68.27493 32 ft 4 kts 337°
2026-04-25 18:37 12.13270 -68.27479 32 ft 4 kts 311°
2026-04-25 18:37 12.13256 -68.27456 30 ft 4 kts 290°
2026-04-25 18:37 12.13249 -68.27430 32 ft 4 kts 275°
2026-04-25 18:38 12.13248 -68.27418 34 ft 0 kts 272°
2026-04-25 18:42 12.13245 -68.27444 32 ft 4 kts 261°
2026-04-25 18:42 12.13229 -68.27474 32 ft 7 kts 231°
2026-04-25 18:43 12.13175 -68.27498 34 ft 9 kts 193°
2026-04-25 18:43 12.13124 -68.27532 34 ft 9 kts 229°
2026-04-25 18:43 12.13107 -68.27591 34 ft 9 kts 266°
2026-04-25 18:43 12.13106 -68.27657 35 ft 10 kts 268°
2026-04-25 18:44 12.13109 -68.27726 34 ft 11 kts 272°
2026-04-25 18:44 12.13113 -68.27830 33 ft 17 kts 272°
2026-04-25 18:44 12.13115 -68.27934 33 ft 9 kts 271°
2026-04-25 18:44 12.13103 -68.27997 33 ft 9 kts 249°
2026-04-25 18:45 12.13085 -68.28036 33 ft 10 kts 240°
2026-04-25 18:45 12.13056 -68.28098 33 ft 8 kts 264°
2026-04-25 18:45 12.13073 -68.28129 34 ft 3 kts 323°
2026-04-25 18:45 12.13091 -68.28130 34 ft 1 kts
2026-04-25 18:46 12.13109 -68.28124 34 ft 3 kts 27°
2026-04-25 18:46 12.13112 -68.28116 34 ft 2 kts 66°
2026-04-25 18:46 12.13114 -68.28108 34 ft 6 kts 75°
2026-04-25 18:46 12.13117 -68.28030 33 ft 0 kts 93°
2026-04-25 18:47 12.13115 -68.27991 33 ft 26 kts 93°
2026-04-25 18:47 12.13098 -68.27363 33 ft 104 kts 92°
2026-04-25 18:48 12.13078 -68.26785 34 ft 137 kts 92°
2026-04-25 18:48 12.12962 -68.25355 506 ft 150 kts 94°
2026-04-25 18:48 12.12953 -68.24659 865 ft 149 kts 88°
2026-04-25 18:48 12.13056 -68.23612 1336 ft 151 kts 80°
2026-04-25 18:49 12.13201 -68.22481 1564 ft 170 kts 86°
2026-04-25 18:49 12.13180 -68.21218 1827 ft 185 kts 98°
2026-04-25 18:49 12.12983 -68.19880 2274 ft 195 kts 99°
2026-04-25 18:49 12.12829 -68.18445 2606 ft 214 kts 94°
2026-04-25 18:50 12.12798 -68.16825 2704 ft 241 kts 92°
2026-04-25 18:50 12.12728 -68.14438 3207 ft 259 kts 92°
2026-04-25 18:50 12.12690 -68.13191 3672 ft 261 kts 95°
2026-04-25 18:50 12.12288 -68.11406 4200 ft 264 kts 116°
2026-04-25 18:51 12.11161 -68.09947 4852 ft 265 kts 142°
2026-04-25 18:51 12.10101 -68.09328 5184 ft 268 kts 160°
2026-04-25 18:51 12.07643 -68.09238 6034 ft 270 kts 195°
2026-04-25 18:51 12.05997 -68.10175 6548 ft 275 kts 221°
2026-04-25 18:52 12.04548 -68.11461 7132 ft 278 kts 218°
2026-04-25 18:52 12.03052 -68.12725 7740 ft 280 kts 220°
2026-04-25 18:52 12.01640 -68.14123 8329 ft 285 kts 227°
2026-04-25 18:52 12.00400 -68.15688 8921 ft 289 kts 234°
2026-04-25 18:53 11.99337 -68.17448 9547 ft 293 kts 242°
2026-04-25 18:53 11.98497 -68.19355 10129 ft 298 kts 249°
2026-04-25 18:53 11.97885 -68.21430 10410 ft 314 kts 257°
2026-04-25 18:53 11.97551 -68.23687 10663 ft 329 kts 265°
2026-04-25 18:54 11.97906 -68.28542 11122 ft 358 kts 283°
2026-04-25 18:54 11.98566 -68.31035 11346 ft 370 kts 286°
2026-04-25 18:54 11.99324 -68.33591 11570 ft 381 kts 287°
2026-04-25 18:55 12.00102 -68.36162 11958 ft 386 kts 287°
2026-04-25 18:55 12.00897 -68.38786 12426 ft 388 kts 287°
2026-04-25 18:55 12.01698 -68.41429 12878 ft 391 kts 287°
2026-04-25 18:55 12.02503 -68.44088 13301 ft 393 kts 287°
2026-04-25 18:56 12.03314 -68.46770 13747 ft 396 kts 287°
2026-04-25 18:56 12.04129 -68.49463 14146 ft 398 kts 287°
2026-04-25 18:56 12.04948 -68.52172 14578 ft 400 kts 287°
2026-04-25 18:56 12.05769 -68.54891 15016 ft 400 kts 287°
2026-04-25 18:57 12.06581 -68.57578 15390 ft 403 kts 287°
2026-04-25 18:57 12.07410 -68.60326 15760 ft 406 kts 287°
2026-04-25 18:57 12.08242 -68.63081 16227 ft 405 kts 287°
2026-04-25 18:57 12.08793 -68.64905 16506 ft 407 kts 287°
2026-04-25 18:58 12.09913 -68.68620 16943 ft 411 kts 287°
2026-04-25 18:58 12.11597 -68.74208 17809 ft 413 kts 286°
2026-04-25 18:58 12.12445 -68.77025 18101 ft 417 kts 287°
2026-04-25 18:59 12.14163 -68.82731 18729 ft 422 kts 287°
2026-04-25 18:59 12.15882 -68.88447 19375 ft 425 kts 287°
2026-04-25 19:00 12.17621 -68.94230 20072 ft 427 kts 287°
2026-04-25 19:00 12.18494 -68.97137 20418 ft 429 kts 287°
2026-04-25 19:01 12.20260 -69.02991 21056 ft 433 kts 287°
2026-04-25 19:01 12.21207 -69.05916 21390 ft 434 kts 288°
2026-04-25 19:01 12.22178 -69.08801 21709 ft 437 kts 289°
2026-04-25 19:01 12.23181 -69.11743 22009 ft 439 kts 289°
2026-04-25 19:02 12.25191 -69.17669 22666 ft 443 kts 288°
2026-04-25 19:02 12.26193 -69.20654 23004 ft 444 kts 288°
2026-04-25 19:02 12.27192 -69.23646 23368 ft 445 kts 288°
2026-04-25 19:03 12.28855 -69.28649 23821 ft 449 kts 288°
2026-04-25 19:03 12.30187 -69.32664 24165 ft 451 kts 288°
2026-04-25 19:03 12.31197 -69.35708 24441 ft 453 kts 288°
2026-04-25 19:04 12.33224 -69.41819 25107 ft 454 kts 288°
2026-04-25 19:04 12.34239 -69.44880 25420 ft 455 kts 288°
2026-04-25 19:05 12.36281 -69.51043 26056 ft 460 kts 288°
2026-04-25 19:05 12.38326 -69.57219 26718 ft 464 kts 288°
2026-04-25 19:05 12.39362 -69.60350 27058 ft 466 kts 288°
2026-04-25 19:06 12.40402 -69.63495 27402 ft 468 kts 288°
2026-04-25 19:06 12.42496 -69.69830 28083 ft 472 kts 287°
2026-04-25 19:06 12.43548 -69.73014 28405 ft 474 kts 287°
2026-04-25 19:07 12.45668 -69.79434 29009 ft 478 kts 287°
2026-04-25 19:07 12.46718 -69.82618 29320 ft 480 kts 287°
2026-04-25 19:08 12.48861 -69.89117 29890 ft 484 kts 287°
2026-04-25 19:08 12.50011 -69.92361 30099 ft 487 kts 291°
2026-04-25 19:09 12.55299 -70.01329 30827 ft 494 kts 303°
2026-04-25 19:09 12.56611 -70.03230 30999 ft 494 kts 303°
2026-04-25 19:09 12.61283 -70.09879 31593 ft 496 kts 303°
2026-04-25 19:10 12.63295 -70.12753 31848 ft 496 kts 303°
2026-04-25 19:10 12.65299 -70.15632 32084 ft 497 kts 303°
2026-04-25 19:10 12.67297 -70.18518 32312 ft 497 kts 303°
2026-04-25 19:10 12.69297 -70.21414 32607 ft 497 kts 302°
2026-04-25 19:11 12.71283 -70.24294 32971 ft 495 kts 302°
2026-04-25 19:11 12.73269 -70.27177 33206 ft 495 kts 302°
2026-04-25 19:11 12.75246 -70.30047 33633 ft 491 kts 302°
2026-04-25 19:11 12.77183 -70.32859 33955 ft 490 kts 302°
2026-04-25 19:12 12.79146 -70.35711 34115 ft 491 kts 302°
2026-04-25 19:12 12.81113 -70.38571 34305 ft 491 kts 302°
2026-04-25 19:12 12.83078 -70.41428 34510 ft 491 kts 302°
2026-04-25 19:12 12.85044 -70.44286 34706 ft 491 kts 302°
2026-04-25 19:13 12.87009 -70.47144 34920 ft 490 kts 301°
2026-04-25 19:13 12.88974 -70.50002 35089 ft 490 kts 301°
2026-04-25 19:13 12.90936 -70.52856 35293 ft 490 kts 301°
2026-04-25 19:13 12.92874 -70.55677 35528 ft 489 kts 301°
2026-04-25 19:14 12.94824 -70.58515 35801 ft 487 kts 301°
2026-04-25 19:14 12.96139 -70.60435 35920 ft 487 kts 301°
2026-04-25 19:14 12.98720 -70.64200 36100 ft 488 kts 301°
2026-04-25 19:14 13.00672 -70.67044 36268 ft 488 kts 301°
2026-04-25 19:15 13.02625 -70.69890 36429 ft 488 kts 301°
2026-04-25 19:15 13.04580 -70.72740 36596 ft 488 kts 301°
2026-04-25 19:15 13.06532 -70.75587 36746 ft 488 kts 301°
2026-04-25 19:15 13.08458 -70.78396 36889 ft 488 kts 301°
2026-04-25 19:16 13.10412 -70.81249 37037 ft 488 kts 301°
2026-04-25 19:16 13.12365 -70.84101 37185 ft 489 kts 301°
2026-04-25 19:16 13.14320 -70.86958 37301 ft 490 kts 301°
2026-04-25 19:16 13.16276 -70.89816 37414 ft 490 kts 300°
2026-04-25 19:17 13.18233 -70.92677 37523 ft 490 kts 300°
2026-04-25 19:17 13.20190 -70.95538 37691 ft 489 kts 300°
2026-04-25 19:17 13.22144 -70.98397 37807 ft 489 kts 300°
2026-04-25 19:18 13.26038 -71.04096 37900 ft 493 kts 300°
2026-04-25 19:18 13.29982 -71.09874 37897 ft 495 kts 300°
2026-04-25 19:19 13.33932 -71.15660 37900 ft 495 kts 301°
2026-04-25 19:19 13.37910 -71.21424 37900 ft 495 kts 301°
2026-04-25 19:20 13.41872 -71.27147 37900 ft 495 kts 301°
2026-04-25 19:20 13.45851 -71.32910 37900 ft 495 kts 301°
2026-04-25 19:21 13.49825 -71.38678 37900 ft 494 kts 301°
2026-04-25 19:21 13.55756 -71.47294 37900 ft 491 kts 300°
2026-04-25 19:22 13.59666 -71.52982 37903 ft 490 kts 300°
2026-04-25 19:23 13.65555 -71.61552 37902 ft 488 kts 300°
2026-04-25 19:23 13.71417 -71.70093 37903 ft 487 kts 300°
2026-04-25 19:24 13.75291 -71.75743 37900 ft 487 kts 300°
2026-04-25 19:25 13.83094 -71.87132 37900 ft 487 kts 300°
2026-04-25 19:25 13.86992 -71.92827 37902 ft 486 kts 301°
2026-04-25 19:26 13.90835 -71.98464 37903 ft 483 kts 300°
2026-04-25 19:26 13.94672 -72.04139 37903 ft 483 kts 300°
2026-04-25 19:27 13.97860 -72.08861 37900 ft 483 kts 300°
2026-04-25 19:27 14.02338 -72.15491 37900 ft 483 kts 300°
2026-04-25 19:28 14.06177 -72.21172 37903 ft 483 kts 300°
2026-04-25 19:28 14.09984 -72.26811 37906 ft 483 kts 300°
2026-04-25 19:29 14.13814 -72.32487 37903 ft 482 kts 300°
2026-04-25 19:29 14.17638 -72.38158 37903 ft 482 kts 300°
2026-04-25 19:30 14.21462 -72.43833 37903 ft 482 kts 300°
2026-04-25 19:30 14.25257 -72.49470 37903 ft 482 kts 300°
2026-04-25 19:31 14.29078 -72.55149 37903 ft 483 kts 300°
2026-04-25 19:31 14.32917 -72.60859 37902 ft 485 kts 300°
2026-04-25 19:32 14.36764 -72.66585 37908 ft 486 kts 300°
2026-04-25 19:32 14.39966 -72.71352 37901 ft 487 kts 300°
2026-04-25 19:33 14.44448 -72.78019 37899 ft 487 kts 300°
2026-04-25 19:33 14.48307 -72.83756 37898 ft 486 kts 300°
2026-04-25 19:34 14.52163 -72.89493 37902 ft 486 kts 300°
2026-04-25 19:34 14.55991 -72.95197 37908 ft 487 kts 300°
2026-04-25 19:35 14.59843 -73.00939 37902 ft 487 kts 300°
2026-04-25 19:35 14.63698 -73.06690 37903 ft 487 kts 300°
2026-04-25 19:36 14.67547 -73.12436 37904 ft 485 kts 300°
2026-04-25 19:36 14.71370 -73.18144 37902 ft 482 kts 300°
2026-04-25 19:37 14.75157 -73.23806 37902 ft 482 kts 300°
2026-04-25 19:37 14.78868 -73.29558 37903 ft 480 kts 297°
2026-04-25 19:38 14.82405 -73.35414 37899 ft 481 kts 297°
2026-04-25 19:38 14.85943 -73.41281 37905 ft 481 kts 297°
2026-04-25 19:39 14.89593 -73.47035 37907 ft 483 kts 300°
2026-04-25 19:39 14.93530 -73.52675 37903 ft 484 kts 301°
2026-04-25 19:40 14.97480 -73.58309 37899 ft 484 kts 301°
2026-04-25 19:40 15.01362 -73.63935 37900 ft 484 kts 300°
2026-04-25 19:41 15.05240 -73.69605 37909 ft 481 kts 301°
2026-04-25 19:41 15.08428 -73.74271 37901 ft 476 kts 300°
2026-04-25 19:42 15.12881 -73.80799 37903 ft 475 kts 300°
2026-04-25 19:42 15.16688 -73.86382 37903 ft 474 kts 300°
2026-04-25 19:43 15.20464 -73.91922 37902 ft 474 kts 300°
2026-04-25 19:43 15.24268 -73.97506 37903 ft 474 kts 300°
2026-04-25 19:44 15.28057 -74.03101 37904 ft 474 kts 300°
2026-04-25 19:44 15.31769 -74.08732 37907 ft 473 kts 300°
2026-04-25 19:45 15.35443 -74.14334 37906 ft 473 kts 300°
2026-04-25 19:45 15.39149 -74.19968 37906 ft 473 kts 300°
2026-04-25 19:46 15.42860 -74.25601 37920 ft 473 kts 300°
2026-04-25 19:46 15.46539 -74.31184 37906 ft 471 kts 300°
2026-04-25 19:47 15.50230 -74.36793 37914 ft 471 kts 300°
2026-04-25 19:47 15.53929 -74.42418 37912 ft 473 kts 300°
2026-04-25 19:48 15.57632 -74.48054 37906 ft 473 kts 300°
2026-04-25 19:48 15.61308 -74.53651 37905 ft 473 kts 300°
2026-04-25 19:49 15.64408 -74.58374 37909 ft 473 kts 300°
2026-04-25 19:49 15.68708 -74.64932 37910 ft 473 kts 300°
2026-04-25 19:50 15.74254 -74.73398 37910 ft 473 kts 300°
2026-04-25 19:51 15.77923 -74.79004 37909 ft 473 kts 300°
2026-04-25 19:51 15.81615 -74.84650 37901 ft 472 kts 301°
2026-04-25 19:52 15.85293 -74.90276 37903 ft 469 kts 301°
2026-04-25 19:52 15.88954 -74.95882 37902 ft 469 kts 301°
2026-04-25 19:53 15.92612 -75.01490 37917 ft 469 kts 301°
2026-04-25 19:53 15.96241 -75.07057 37899 ft 468 kts 301°
2026-04-25 19:54 15.99888 -75.12655 37921 ft 467 kts 301°
2026-04-25 19:54 16.03526 -75.18243 37902 ft 467 kts 301°
2026-04-25 19:55 16.07162 -75.23833 37919 ft 467 kts 301°
2026-04-25 19:55 16.10795 -75.29422 37901 ft 467 kts 301°
2026-04-25 19:56 16.14401 -75.34975 37900 ft 467 kts 301°
2026-04-25 19:56 16.18033 -75.40571 37902 ft 467 kts 301°
2026-04-25 19:57 16.21659 -75.46162 37910 ft 464 kts 301°
2026-04-25 19:57 16.25264 -75.51725 37908 ft 463 kts 301°
2026-04-25 19:58 16.28840 -75.57248 37907 ft 463 kts 301°
2026-04-25 19:58 16.32438 -75.62809 37904 ft 463 kts 301°
2026-04-25 19:59 16.36035 -75.68376 37904 ft 463 kts 301°
2026-04-25 19:59 16.39633 -75.73946 37904 ft 463 kts 301°
2026-04-25 20:00 16.43203 -75.79475 37909 ft 463 kts 301°
2026-04-25 20:00 16.46797 -75.85046 37910 ft 463 kts 301°
2026-04-25 20:01 16.52184 -75.93407 37904 ft 463 kts 301°
2026-04-25 20:01 16.55776 -75.98987 37906 ft 463 kts 301°
2026-04-25 20:02 16.59338 -76.04524 37908 ft 462 kts 300°
2026-04-25 20:02 16.62911 -76.10083 37907 ft 461 kts 300°
2026-04-25 20:03 16.66478 -76.15639 37907 ft 461 kts 300°
2026-04-25 20:03 16.70045 -76.21199 37906 ft 461 kts 300°
2026-04-25 20:04 16.73589 -76.26725 37903 ft 461 kts 300°
2026-04-25 20:04 16.77156 -76.32293 37903 ft 461 kts 300°
2026-04-25 20:05 16.80721 -76.37862 37903 ft 461 kts 300°
2026-04-25 20:05 16.84283 -76.43431 37903 ft 461 kts 300°
2026-04-25 20:06 16.87821 -76.48966 37904 ft 461 kts 300°
2026-04-25 20:06 16.91384 -76.54544 37903 ft 461 kts 300°
2026-04-25 20:07 16.94941 -76.60119 37901 ft 461 kts 300°
2026-04-25 20:07 16.98490 -76.65684 37899 ft 459 kts 300°
2026-04-25 20:08 17.02026 -76.71233 37899 ft 459 kts 300°
2026-04-25 20:08 17.05532 -76.76742 37894 ft 459 kts 300°
2026-04-25 20:09 17.09063 -76.82294 37892 ft 459 kts 300°
2026-04-25 20:09 17.12592 -76.87846 37894 ft 458 kts 300°
2026-04-25 20:10 17.16119 -76.93400 37895 ft 458 kts 300°
2026-04-25 20:10 17.19618 -76.98914 37893 ft 458 kts 300°
2026-04-25 20:11 17.23139 -77.04468 37895 ft 458 kts 300°
2026-04-25 20:11 17.26660 -77.10026 37898 ft 458 kts 300°
2026-04-25 20:12 17.30180 -77.15586 37893 ft 458 kts 300°
2026-04-25 20:12 17.32510 -77.19269 37895 ft 458 kts 300°
2026-04-25 20:13 17.37175 -77.26648 37893 ft 455 kts 300°
2026-04-25 20:13 17.40658 -77.32163 37882 ft 454 kts 300°
2026-04-25 20:14 17.44135 -77.37676 37895 ft 454 kts 300°
2026-04-25 20:14 17.47614 -77.43195 37900 ft 454 kts 300°
2026-04-25 20:15 17.51065 -77.48675 37900 ft 454 kts 300°
2026-04-25 20:15 17.54541 -77.54195 37897 ft 454 kts 300°
2026-04-25 20:16 17.58016 -77.59718 37896 ft 454 kts 300°
2026-04-25 20:16 17.61488 -77.65242 37896 ft 454 kts 300°
2026-04-25 20:17 17.64934 -77.70728 37906 ft 453 kts 300°
2026-04-25 20:17 17.68400 -77.76253 37905 ft 454 kts 300°
2026-04-25 20:18 17.71867 -77.81781 37908 ft 453 kts 300°
2026-04-25 20:18 17.75330 -77.87310 37887 ft 454 kts 300°
2026-04-25 20:19 17.78771 -77.92807 37903 ft 454 kts 299°
2026-04-25 20:19 17.82232 -77.98341 37909 ft 453 kts 300°
2026-04-25 20:20 17.85685 -78.03867 37910 ft 453 kts 300°
2026-04-25 20:20 17.89192 -78.09359 37908 ft 453 kts 301°
2026-04-25 20:21 17.92765 -78.14811 37887 ft 453 kts 301°
2026-04-25 20:21 17.96307 -78.20232 37893 ft 453 kts 301°
2026-04-25 20:22 17.98687 -78.23892 37911 ft 453 kts 300°
2026-04-25 20:22 18.03405 -78.31175 37908 ft 453 kts 300°
2026-04-25 20:23 18.06946 -78.36650 37892 ft 453 kts 300°
2026-04-25 20:23 18.10455 -78.42076 37896 ft 450 kts 300°
2026-04-25 20:24 18.13963 -78.47505 37897 ft 448 kts 300°
2026-04-25 20:24 18.17464 -78.52930 37898 ft 448 kts 300°
2026-04-25 20:25 18.20964 -78.58358 37894 ft 448 kts 300°
2026-04-25 20:25 18.24436 -78.63746 37895 ft 448 kts 300°
2026-04-25 20:26 18.27934 -78.69179 37898 ft 448 kts 300°
2026-04-25 20:26 18.31426 -78.74606 37898 ft 448 kts 300°
2026-04-25 20:27 18.34914 -78.80032 37895 ft 448 kts 300°
2026-04-25 20:27 18.38376 -78.85424 37895 ft 448 kts 300°
2026-04-25 20:28 18.41863 -78.90857 37895 ft 448 kts 300°
2026-04-25 20:28 18.45346 -78.96291 37895 ft 448 kts 300°
2026-04-25 20:29 18.48820 -79.01712 37896 ft 445 kts 300°
2026-04-25 20:29 18.52254 -79.07076 37890 ft 444 kts 300°
2026-04-25 20:30 18.55710 -79.12482 37898 ft 445 kts 300°
2026-04-25 20:30 18.59169 -79.17895 37897 ft 445 kts 300°
2026-04-25 20:31 18.62626 -79.23310 37894 ft 445 kts 300°
2026-04-25 20:31 18.66058 -79.28690 37895 ft 445 kts 300°
2026-04-25 20:32 18.69512 -79.34110 37899 ft 445 kts 300°
2026-04-25 20:32 18.72965 -79.39532 37896 ft 445 kts 300°
2026-04-25 20:33 18.76417 -79.44956 37897 ft 445 kts 300°
2026-04-25 20:33 18.78700 -79.48548 37896 ft 445 kts 300°
2026-04-25 20:34 18.83291 -79.55775 37898 ft 445 kts 299°
2026-04-25 20:34 18.86727 -79.61187 37892 ft 443 kts 299°
2026-04-25 20:35 18.90154 -79.66593 37895 ft 443 kts 299°
2026-04-25 20:35 18.93578 -79.71996 37895 ft 443 kts 299°
2026-04-25 20:36 18.96983 -79.77364 37895 ft 443 kts 299°
2026-04-25 20:36 19.00411 -79.82772 37895 ft 443 kts 299°
2026-04-25 20:37 19.03839 -79.88185 37895 ft 443 kts 299°
2026-04-25 20:37 19.07268 -79.93607 37894 ft 443 kts 299°
2026-04-25 20:38 19.10669 -79.98988 37892 ft 443 kts 299°
2026-04-25 20:38 19.14095 -80.04414 37892 ft 443 kts 299°
2026-04-25 20:39 19.17517 -80.09838 37895 ft 443 kts 299°
2026-04-25 20:39 19.19781 -80.13430 37921 ft 443 kts 299°
2026-04-25 20:40 19.24310 -80.20617 37895 ft 439 kts 299°
2026-04-25 20:40 19.27694 -80.25996 37895 ft 439 kts 299°
2026-04-25 20:41 19.31076 -80.31377 37895 ft 439 kts 299°
2026-04-25 20:41 19.34458 -80.36762 37895 ft 439 kts 299°
2026-04-25 20:42 19.37837 -80.42148 37892 ft 439 kts 299°
2026-04-25 20:42 19.41193 -80.47499 37892 ft 439 kts 299°
2026-04-25 20:43 19.44571 -80.52891 37895 ft 439 kts 299°
2026-04-25 20:43 19.47945 -80.58282 37894 ft 439 kts 299°
2026-04-25 20:44 19.51316 -80.63672 37892 ft 439 kts 299°
2026-04-25 20:44 19.54662 -80.69029 37892 ft 439 kts 299°
2026-04-25 20:45 19.58025 -80.74415 37891 ft 437 kts 299°
2026-04-25 20:45 19.61369 -80.79775 37892 ft 435 kts 298°
2026-04-25 20:46 19.64706 -80.85131 37892 ft 435 kts 298°
2026-04-25 20:46 19.68021 -80.90457 37892 ft 435 kts 298°
2026-04-25 20:47 19.71355 -80.95818 37895 ft 435 kts 298°
2026-04-25 20:47 19.74690 -81.01184 37895 ft 436 kts 298°
2026-04-25 20:48 19.78024 -81.06555 37898 ft 436 kts 298°
2026-04-25 20:48 19.81356 -81.11925 37897 ft 436 kts 298°
2026-04-25 20:49 19.84665 -81.17264 37895 ft 436 kts 298°
2026-04-25 20:49 19.87994 -81.22641 37895 ft 436 kts 298°
2026-04-25 20:50 19.91324 -81.28023 37896 ft 436 kts 298°
2026-04-25 20:50 19.94650 -81.33403 37894 ft 435 kts 298°
2026-04-25 20:51 19.97943 -81.38736 37895 ft 434 kts 298°
2026-04-25 20:51 20.01237 -81.44120 37895 ft 433 kts 297°
2026-04-25 20:52 20.03757 -81.48714 37898 ft 432 kts 295°
2026-04-25 20:52 20.07182 -81.55233 37897 ft 432 kts 295°
2026-04-25 20:53 20.10144 -81.60796 37894 ft 432 kts 295°
2026-04-25 20:53 20.13116 -81.66310 37898 ft 432 kts 295°
2026-04-25 20:54 20.16114 -81.71856 37895 ft 433 kts 295°
2026-04-25 20:54 20.19114 -81.77411 37895 ft 433 kts 295°
2026-04-25 20:55 20.22105 -81.82964 37894 ft 433 kts 295°
2026-04-25 20:55 20.25077 -81.88483 37895 ft 433 kts 295°
2026-04-25 20:56 20.28068 -81.94043 37898 ft 433 kts 295°
2026-04-25 20:56 20.31055 -81.99599 37899 ft 431 kts 295°
2026-04-25 20:57 20.34029 -82.05137 37890 ft 430 kts 295°
2026-04-25 20:57 20.36977 -82.10635 37892 ft 430 kts 295°
2026-04-25 20:58 20.39944 -82.16173 37887 ft 430 kts 295°
2026-04-25 20:58 20.42908 -82.21711 37893 ft 430 kts 295°
2026-04-25 20:59 20.45870 -82.27250 37886 ft 430 kts 295°
2026-04-25 20:59 20.48835 -82.32790 37887 ft 430 kts 296°
2026-04-25 21:00 20.50821 -82.36451 37887 ft 430 kts 296°
2026-04-25 21:01 20.56328 -82.46571 37896 ft 431 kts 296°
2026-04-25 21:01 20.59333 -82.52114 37897 ft 432 kts 296°
2026-04-25 21:02 20.62312 -82.57621 37900 ft 431 kts 296°
2026-04-25 21:02 20.65312 -82.63171 37910 ft 431 kts 296°
2026-04-25 21:03 20.68298 -82.68701 37892 ft 429 kts 296°
2026-04-25 21:03 20.71274 -82.74217 37894 ft 428 kts 296°
2026-04-25 21:04 20.74227 -82.79697 37890 ft 428 kts 296°
2026-04-25 21:04 20.77194 -82.85210 37891 ft 428 kts 296°
2026-04-25 21:05 20.80162 -82.90726 37894 ft 428 kts 296°
2026-04-25 21:05 20.83125 -82.96241 37895 ft 428 kts 296°
2026-04-25 21:06 20.86067 -83.01723 37889 ft 428 kts 296°
2026-04-25 21:06 20.89027 -83.07242 37897 ft 428 kts 296°
2026-04-25 21:07 20.91984 -83.12762 37889 ft 428 kts 296°
2026-04-25 21:07 20.94939 -83.18284 37890 ft 428 kts 296°
2026-04-25 21:08 20.97893 -83.23808 37891 ft 428 kts 296°
2026-04-25 21:08 21.00826 -83.29300 37922 ft 428 kts 296°
2026-04-25 21:09 21.05293 -83.37507 37889 ft 424 kts 297°
2026-04-25 21:09 21.08289 -83.42941 37891 ft 423 kts 296°
2026-04-25 21:10 21.11265 -83.48380 37892 ft 423 kts 296°
2026-04-25 21:10 21.14217 -83.53792 37888 ft 423 kts 296°
2026-04-25 21:11 21.17186 -83.59244 37889 ft 424 kts 296°
2026-04-25 21:11 21.20158 -83.64708 37896 ft 424 kts 296°
2026-04-25 21:12 21.23128 -83.70172 37898 ft 424 kts 296°
2026-04-25 21:12 21.25092 -83.73789 37890 ft 424 kts 296°
2026-04-25 21:13 21.29042 -83.81069 37890 ft 424 kts 296°
2026-04-25 21:13 21.32006 -83.86539 37887 ft 424 kts 296°
2026-04-25 21:14 21.34970 -83.92014 37887 ft 424 kts 296°
2026-04-25 21:14 21.37930 -83.97488 37890 ft 424 kts 296°
2026-04-25 21:15 21.40868 -84.02932 37890 ft 424 kts 296°
2026-04-25 21:15 21.43828 -84.08407 37890 ft 424 kts 296°
2026-04-25 21:16 21.46787 -84.13884 37892 ft 424 kts 296°
2026-04-25 21:16 21.49744 -84.19369 37892 ft 424 kts 296°
2026-04-25 21:17 21.52678 -84.24817 37890 ft 424 kts 296°
2026-04-25 21:17 21.55629 -84.30303 37886 ft 424 kts 296°
2026-04-25 21:18 21.58583 -84.35800 37887 ft 425 kts 296°
2026-04-25 21:18 21.61036 -84.40368 37889 ft 425 kts 296°
2026-04-25 21:19 21.64467 -84.46763 37891 ft 425 kts 296°
2026-04-25 21:19 21.67415 -84.52265 37892 ft 425 kts 296°
2026-04-25 21:20 21.69386 -84.55946 37893 ft 425 kts 296°
2026-04-25 21:20 21.72806 -84.62342 37892 ft 423 kts 297°
2026-04-25 21:21 21.76212 -84.68717 37886 ft 423 kts 297°
2026-04-25 21:21 21.79143 -84.74210 37888 ft 424 kts 297°
2026-04-25 21:22 21.81577 -84.78784 37889 ft 424 kts 297°
2026-04-25 21:22 21.84498 -84.84292 37889 ft 424 kts 297°
2026-04-25 21:23 21.87417 -84.89804 37889 ft 424 kts 297°
2026-04-25 21:23 21.90332 -84.95316 37884 ft 424 kts 297°
2026-04-25 21:24 21.93232 -85.00793 37886 ft 424 kts 297°
2026-04-25 21:24 21.96150 -85.06310 37887 ft 424 kts 297°
2026-04-25 21:25 21.99071 -85.11841 37892 ft 425 kts 297°
2026-04-25 21:25 22.02036 -85.17350 37892 ft 425 kts 298°
2026-04-25 21:26 22.05008 -85.22815 37891 ft 425 kts 297°
2026-04-25 21:26 22.07991 -85.28320 37891 ft 425 kts 298°
2026-04-25 21:27 22.10965 -85.33828 37892 ft 425 kts 298°
2026-04-25 21:27 22.13936 -85.39344 37893 ft 425 kts 298°
2026-04-25 21:28 22.16884 -85.44823 37886 ft 425 kts 298°
2026-04-25 21:28 22.19854 -85.50348 37891 ft 426 kts 298°
2026-04-25 21:29 22.22825 -85.55879 37892 ft 426 kts 298°
2026-04-25 21:29 22.25797 -85.61406 37889 ft 426 kts 298°
2026-04-25 21:30 22.28782 -85.66928 37892 ft 426 kts 298°
2026-04-25 21:30 22.31263 -85.71517 37892 ft 426 kts 298°
2026-04-25 21:31 22.34727 -85.77939 37890 ft 426 kts 298°
2026-04-25 21:31 22.37707 -85.83470 37889 ft 426 kts 298°
2026-04-25 21:32 22.40683 -85.89003 37914 ft 426 kts 298°
2026-04-25 21:32 22.43657 -85.94535 37890 ft 426 kts 298°
2026-04-25 21:33 22.46682 -85.99983 37891 ft 426 kts 302°
2026-04-25 21:33 22.50034 -86.05277 37888 ft 427 kts 303°
2026-04-25 21:34 22.53465 -86.10515 37890 ft 427 kts 303°
2026-04-25 21:34 22.56909 -86.15746 37893 ft 427 kts 303°
2026-04-25 21:35 22.60324 -86.20951 37888 ft 426 kts 303°
2026-04-25 21:35 22.63748 -86.26185 37885 ft 426 kts 303°
2026-04-25 21:36 22.67166 -86.31418 37890 ft 426 kts 303°
2026-04-25 21:36 22.70585 -86.36659 37886 ft 426 kts 303°
2026-04-25 21:37 22.73424 -86.41012 37890 ft 426 kts 303°
2026-04-25 21:37 22.77220 -86.47220 37893 ft 425 kts 300°
2026-04-25 21:38 22.80173 -86.52768 37886 ft 425 kts 298°
2026-04-25 21:38 22.82566 -86.57409 37886 ft 424 kts 298°
2026-04-25 21:39 22.85895 -86.63905 37889 ft 424 kts 298°
2026-04-25 21:39 22.88760 -86.69484 37888 ft 424 kts 298°
2026-04-25 21:40 22.91630 -86.75065 37890 ft 424 kts 298°
2026-04-25 21:40 22.94498 -86.80648 37888 ft 424 kts 298°
2026-04-25 21:41 22.97344 -86.86193 37888 ft 424 kts 298°
2026-04-25 21:41 23.00208 -86.91781 37889 ft 424 kts 298°
2026-04-25 21:42 23.03070 -86.97371 37880 ft 424 kts 298°
2026-04-25 21:42 23.05931 -87.02965 37898 ft 424 kts 298°
2026-04-25 21:43 23.08786 -87.08564 37905 ft 424 kts 298°
2026-04-25 21:43 23.11625 -87.14121 37887 ft 423 kts 298°
2026-04-25 21:44 23.14479 -87.19716 37887 ft 423 kts 298°
2026-04-25 21:45 23.18758 -87.28118 37884 ft 423 kts 298°
2026-04-25 21:45 23.21588 -87.33683 37876 ft 423 kts 298°
2026-04-25 21:46 23.24434 -87.39289 37891 ft 424 kts 298°
2026-04-25 21:46 23.27281 -87.44902 37887 ft 424 kts 298°
2026-04-25 21:47 23.30126 -87.50517 37882 ft 424 kts 298°
2026-04-25 21:47 23.32949 -87.56096 37885 ft 424 kts 298°
2026-04-25 21:48 23.35790 -87.61714 37880 ft 424 kts 298°
2026-04-25 21:48 23.38628 -87.67336 37884 ft 424 kts 298°
2026-04-25 21:49 23.41464 -87.72959 37909 ft 424 kts 299°
2026-04-25 21:49 23.44302 -87.78593 37886 ft 424 kts 299°
2026-04-25 21:50 23.47148 -87.84174 37882 ft 424 kts 300°
2026-04-25 21:50 23.50055 -87.89767 37880 ft 424 kts 300°
2026-04-25 21:51 23.52960 -87.95365 37879 ft 424 kts 300°
2026-04-25 21:51 23.55854 -88.00971 37881 ft 424 kts 299°
2026-04-25 21:52 23.58721 -88.06540 37883 ft 424 kts 299°
2026-04-25 21:52 23.61608 -88.12156 37885 ft 426 kts 299°
2026-04-25 21:53 23.64507 -88.17801 37883 ft 427 kts 299°
2026-04-25 21:53 23.67407 -88.23452 37884 ft 427 kts 299°
2026-04-25 21:54 23.70304 -88.29106 37882 ft 427 kts 299°
2026-04-25 21:54 23.73179 -88.34723 37880 ft 427 kts 299°
2026-04-25 21:55 23.76071 -88.40380 37885 ft 426 kts 300°
2026-04-25 21:55 23.78953 -88.46024 37880 ft 425 kts 300°
2026-04-25 21:56 23.81837 -88.51676 37882 ft 428 kts 299°
2026-04-25 21:56 23.84715 -88.57324 37881 ft 428 kts 299°
2026-04-25 21:57 23.87610 -88.63013 37877 ft 429 kts 299°
2026-04-25 21:57 23.90505 -88.68709 37878 ft 429 kts 299°
2026-04-25 21:58 23.93398 -88.74406 37877 ft 429 kts 299°
2026-04-25 21:58 23.96269 -88.80068 37876 ft 429 kts 299°
2026-04-25 21:59 23.99159 -88.85773 37856 ft 429 kts 299°
2026-04-25 21:59 24.02050 -88.91487 37886 ft 430 kts 299°
2026-04-25 22:00 24.06375 -89.00047 37884 ft 430 kts 299°
2026-04-25 22:00 24.09265 -89.05777 37881 ft 430 kts 299°
2026-04-25 22:01 24.12155 -89.11504 37874 ft 430 kts 299°
2026-04-25 22:01 24.14563 -89.16257 37878 ft 430 kts 299°
2026-04-25 22:02 24.17934 -89.22913 37878 ft 430 kts 299°
2026-04-25 22:02 24.20826 -89.28640 37861 ft 430 kts 300°
2026-04-25 22:03 24.23718 -89.34372 37880 ft 430 kts 300°
2026-04-25 22:03 24.26606 -89.40105 37881 ft 430 kts 300°
2026-04-25 22:04 24.29473 -89.45802 37882 ft 430 kts 300°
2026-04-25 22:04 24.32358 -89.51542 37880 ft 430 kts 300°
2026-04-25 22:05 24.35240 -89.57284 37864 ft 430 kts 300°
2026-04-25 22:05 24.38121 -89.63029 37859 ft 430 kts 300°
2026-04-25 22:06 24.40996 -89.68771 37877 ft 429 kts 300°
2026-04-25 22:06 24.43843 -89.74464 37869 ft 428 kts 300°
2026-04-25 22:07 24.46254 -89.79258 37867 ft 428 kts 301°
2026-04-25 22:07 24.50539 -89.85179 37870 ft 428 kts 316°
2026-04-25 22:08 24.55298 -89.89137 37872 ft 430 kts 323°
2026-04-25 22:08 24.60182 -89.92861 37872 ft 430 kts 323°
2026-04-25 22:09 24.65099 -89.96615 37876 ft 430 kts 323°
2026-04-25 22:09 24.70011 -90.00374 37857 ft 430 kts 323°
2026-04-25 22:10 24.74929 -90.04142 37867 ft 431 kts 323°
2026-04-25 22:10 24.79850 -90.07916 37866 ft 431 kts 323°
2026-04-25 22:11 24.84736 -90.11666 37867 ft 431 kts 323°
2026-04-25 22:11 24.89655 -90.15447 37866 ft 431 kts 323°
2026-04-25 22:12 24.94570 -90.19228 37869 ft 431 kts 323°
2026-04-25 22:12 24.98654 -90.22372 37864 ft 431 kts 323°
2026-04-25 22:13 25.04361 -90.26770 37870 ft 429 kts 323°
2026-04-25 22:13 25.09246 -90.30538 37870 ft 428 kts 322°
2026-04-25 22:14 25.14121 -90.34304 37867 ft 428 kts 322°
2026-04-25 22:14 25.18995 -90.38072 37868 ft 428 kts 322°
2026-04-25 22:15 25.23840 -90.41821 37870 ft 428 kts 323°
2026-04-25 22:16 25.31157 -90.47490 37867 ft 428 kts 323°
2026-04-25 22:16 25.36030 -90.51270 37870 ft 427 kts 322°
2026-04-25 22:17 25.40886 -90.55041 37867 ft 426 kts 322°
2026-04-25 22:17 25.45705 -90.58787 37868 ft 426 kts 322°
2026-04-25 22:18 25.50556 -90.62561 37867 ft 426 kts 322°
2026-04-25 22:18 25.55405 -90.66339 37868 ft 426 kts 322°
2026-04-25 22:19 25.60254 -90.70119 37868 ft 426 kts 322°
2026-04-25 22:19 25.65068 -90.73876 37883 ft 426 kts 322°
2026-04-25 22:20 25.69903 -90.77653 37862 ft 425 kts 322°
2026-04-25 22:20 25.74738 -90.81435 37863 ft 425 kts 322°
2026-04-25 22:21 25.79570 -90.85217 37864 ft 425 kts 322°
2026-04-25 22:21 25.84371 -90.88980 37863 ft 425 kts 322°
2026-04-25 22:22 25.89205 -90.92771 37865 ft 425 kts 322°
2026-04-25 22:22 25.94033 -90.96562 37866 ft 425 kts 322°
2026-04-25 22:23 25.98861 -91.00357 37864 ft 424 kts 322°
2026-04-25 22:23 26.03642 -91.04119 37865 ft 424 kts 322°
2026-04-25 22:24 26.08456 -91.07910 37859 ft 424 kts 322°
2026-04-25 22:24 26.13265 -91.11703 37859 ft 424 kts 322°
2026-04-25 22:25 26.18075 -91.15499 37852 ft 424 kts 322°
2026-04-25 22:25 26.22889 -91.19302 37858 ft 424 kts 322°
2026-04-25 22:26 26.27666 -91.23080 37857 ft 423 kts 322°
2026-04-25 22:26 26.32465 -91.26879 37853 ft 423 kts 322°
2026-04-25 22:27 26.37255 -91.30676 37854 ft 422 kts 322°
2026-04-25 22:27 26.42043 -91.34474 37854 ft 422 kts 322°
2026-04-25 22:28 26.46797 -91.38249 37851 ft 422 kts 322°
2026-04-25 22:28 26.51588 -91.42059 37851 ft 422 kts 322°
2026-04-25 22:29 26.56371 -91.45865 37869 ft 422 kts 322°
2026-04-25 22:29 26.61151 -91.49673 37851 ft 422 kts 322°
2026-04-25 22:30 26.68281 -91.55361 37851 ft 422 kts 321°
2026-04-25 22:30 26.72282 -91.58556 37851 ft 422 kts 321°
2026-04-25 22:31 26.77832 -91.62994 37845 ft 422 kts 321°
2026-04-25 22:31 26.82607 -91.66816 37845 ft 422 kts 321°
2026-04-25 22:32 26.87348 -91.70614 37853 ft 422 kts 321°
2026-04-25 22:32 26.92110 -91.74434 37846 ft 421 kts 321°
2026-04-25 22:33 26.96870 -91.78257 37845 ft 421 kts 321°
2026-04-25 22:33 27.01628 -91.82081 37847 ft 421 kts 321°
2026-04-25 22:34 27.06383 -91.85908 37846 ft 421 kts 321°
2026-04-25 22:34 27.11109 -91.89715 37846 ft 421 kts 321°
2026-04-25 22:35 27.15864 -91.93550 37844 ft 421 kts 321°
2026-04-25 22:35 27.20494 -91.97544 37849 ft 418 kts 316°
2026-04-25 22:36 27.24857 -92.01857 37845 ft 418 kts 316°
2026-04-25 22:36 27.29217 -92.06108 37841 ft 418 kts 316°
2026-04-25 22:37 27.33621 -92.10370 37844 ft 418 kts 316°
2026-04-25 22:37 27.38031 -92.14631 37842 ft 418 kts 316°
2026-04-25 22:38 27.42441 -92.18892 37841 ft 418 kts 316°
2026-04-25 22:38 27.46821 -92.23128 37856 ft 418 kts 316°
2026-04-25 22:39 27.51215 -92.27383 37845 ft 416 kts 316°
2026-04-25 22:39 27.55601 -92.31633 37841 ft 416 kts 316°
2026-04-25 22:40 27.59981 -92.35884 37847 ft 416 kts 316°
2026-04-25 22:40 27.64363 -92.40140 37846 ft 416 kts 316°
2026-04-25 22:41 27.68713 -92.44370 37840 ft 416 kts 316°
2026-04-25 22:41 27.73091 -92.48632 37841 ft 416 kts 316°
2026-04-25 22:42 27.77467 -92.52897 37844 ft 416 kts 316°
2026-04-25 22:42 27.81842 -92.57165 37841 ft 416 kts 316°
2026-04-25 22:43 27.86185 -92.61407 37835 ft 416 kts 316°
2026-04-25 22:43 27.90554 -92.65679 37831 ft 416 kts 316°
2026-04-25 22:44 27.94930 -92.69963 37831 ft 416 kts 316°
2026-04-25 22:44 27.99308 -92.74253 37833 ft 417 kts 316°
2026-04-25 22:45 28.03659 -92.78522 37843 ft 417 kts 316°
2026-04-25 22:45 28.08042 -92.82826 37834 ft 418 kts 315°
2026-04-25 22:46 28.12439 -92.87150 37838 ft 419 kts 315°
2026-04-25 22:46 28.16837 -92.91479 37832 ft 419 kts 315°
2026-04-25 22:47 28.21235 -92.95812 37828 ft 419 kts 315°
2026-04-25 22:47 28.25602 -93.00121 37829 ft 419 kts 315°
2026-04-25 22:48 28.29997 -93.04462 37832 ft 419 kts 315°
2026-04-25 22:48 28.34396 -93.08812 37833 ft 420 kts 315°
2026-04-25 22:49 28.38791 -93.13162 37829 ft 419 kts 315°
2026-04-25 22:49 28.43154 -93.17487 37832 ft 419 kts 315°
2026-04-25 22:50 28.47545 -93.21844 37829 ft 419 kts 315°
2026-04-25 22:50 28.51932 -93.26202 37830 ft 419 kts 315°
2026-04-25 22:51 28.56319 -93.30565 37831 ft 419 kts 315°
2026-04-25 22:51 28.60675 -93.34902 37831 ft 419 kts 315°
2026-04-25 22:52 28.65060 -93.39273 37832 ft 418 kts 315°
2026-04-25 22:52 28.68690 -93.42895 37831 ft 417 kts 315°
2026-04-25 22:53 28.73790 -93.47990 37781 ft 418 kts 315°
2026-04-25 22:53 28.75971 -93.50171 37523 ft 417 kts 315°
2026-04-25 22:53 28.78150 -93.52351 37255 ft 417 kts 315°
2026-04-25 22:54 28.80334 -93.54538 36987 ft 419 kts 315°
2026-04-25 22:54 28.82495 -93.56704 36739 ft 420 kts 315°
2026-04-25 22:54 28.84692 -93.58906 36479 ft 421 kts 315°
2026-04-25 22:54 28.86886 -93.61104 36036 ft 418 kts 315°
2026-04-25 22:55 28.89064 -93.63289 35418 ft 417 kts 315°
2026-04-25 22:55 28.91242 -93.65476 34784 ft 417 kts 315°
2026-04-25 22:55 28.93431 -93.67677 34024 ft 421 kts 315°
2026-04-25 22:55 28.95635 -93.69894 33177 ft 424 kts 315°
2026-04-25 22:56 28.97850 -93.72122 32401 ft 425 kts 315°
2026-04-25 22:56 29.00075 -93.74362 31618 ft 427 kts 315°
2026-04-25 22:56 29.02280 -93.76583 30798 ft 430 kts 315°
2026-04-25 22:56 29.04533 -93.78857 29947 ft 434 kts 315°
2026-04-25 22:57 29.06782 -93.81187 28909 ft 438 kts 315°
2026-04-25 22:57 29.09030 -93.83543 28191 ft 437 kts 315°
2026-04-25 22:57 29.11259 -93.85877 27561 ft 433 kts 315°
2026-04-25 22:57 29.13476 -93.88197 26945 ft 430 kts 315°
2026-04-25 22:58 29.15679 -93.90500 26323 ft 428 kts 315°
2026-04-25 22:58 29.17869 -93.92792 25704 ft 426 kts 315°
2026-04-25 22:58 29.19994 -93.95013 25537 ft 413 kts 315°
2026-04-25 22:58 29.22079 -93.97192 25426 ft 399 kts 315°
2026-04-25 22:59 29.24094 -93.99300 25286 ft 386 kts 314°
2026-04-25 22:59 29.26044 -94.01343 25122 ft 375 kts 314°
2026-04-25 22:59 29.27940 -94.03330 24957 ft 364 kts 314°
2026-04-25 22:59 29.29780 -94.05261 24750 ft 355 kts 314°
2026-04-25 23:00 29.31601 -94.07176 24233 ft 356 kts 314°
2026-04-25 23:00 29.33424 -94.09095 23758 ft 356 kts 314°
2026-04-25 23:00 29.35224 -94.10985 23259 ft 356 kts 314°
2026-04-25 23:00 29.37044 -94.12896 22749 ft 354 kts 314°
2026-04-25 23:01 29.38858 -94.14800 22272 ft 352 kts 314°
2026-04-25 23:01 29.40660 -94.16694 21800 ft 350 kts 314°
2026-04-25 23:01 29.42450 -94.18578 21343 ft 348 kts 314°
2026-04-25 23:01 29.44233 -94.20453 20873 ft 347 kts 314°
2026-04-25 23:02 29.46006 -94.22320 20414 ft 346 kts 314°
2026-04-25 23:02 29.47773 -94.24181 19958 ft 345 kts 314°
2026-04-25 23:02 29.49538 -94.26042 19471 ft 344 kts 314°
2026-04-25 23:02 29.51275 -94.27876 19028 ft 343 kts 314°
2026-04-25 23:03 29.52877 -94.29884 18560 ft 340 kts 303°
2026-04-25 23:03 29.54067 -94.32214 18088 ft 338 kts 296°
2026-04-25 23:03 29.55106 -94.34621 17587 ft 336 kts 295°
2026-04-25 23:03 29.56123 -94.37020 17207 ft 331 kts 295°
2026-04-25 23:04 29.57125 -94.39377 16850 ft 327 kts 295°
2026-04-25 23:04 29.57786 -94.40929 16575 ft 326 kts 295°
2026-04-25 23:04 29.59116 -94.44047 15974 ft 324 kts 295°
2026-04-25 23:04 29.60095 -94.46337 15541 ft 323 kts 295°
2026-04-25 23:05 29.61086 -94.48655 15095 ft 323 kts 296°
2026-04-25 23:05 29.62076 -94.50971 14757 ft 325 kts 296°
2026-04-25 23:05 29.63081 -94.53317 14455 ft 329 kts 296°
2026-04-25 23:05 29.64094 -94.55677 14144 ft 329 kts 296°
2026-04-25 23:06 29.65104 -94.58032 13812 ft 328 kts 296°
2026-04-25 23:06 29.66112 -94.60385 13488 ft 328 kts 296°
2026-04-25 23:06 29.67116 -94.62732 13153 ft 327 kts 296°
2026-04-25 23:06 29.68120 -94.65077 12849 ft 327 kts 296°
2026-04-25 23:07 29.69123 -94.67421 12525 ft 326 kts 296°
2026-04-25 23:07 29.70108 -94.69728 12220 ft 326 kts 296°
2026-04-25 23:07 29.71104 -94.72060 11904 ft 325 kts 296°
2026-04-25 23:07 29.72100 -94.74394 11600 ft 325 kts 296°
2026-04-25 23:08 29.73092 -94.76724 11292 ft 323 kts 296°
2026-04-25 23:08 29.74077 -94.79041 10997 ft 323 kts 296°
2026-04-25 23:08 29.75064 -94.81364 10689 ft 323 kts 296°
2026-04-25 23:08 29.76036 -94.83651 10520 ft 312 kts 296°
2026-04-25 23:09 29.76972 -94.85856 10331 ft 300 kts 296°
2026-04-25 23:09 29.77881 -94.87991 10007 ft 296 kts 296°
2026-04-25 23:09 29.78783 -94.90114 9622 ft 293 kts 297°
2026-04-25 23:09 29.79660 -94.92182 9268 ft 289 kts 296°
2026-04-25 23:10 29.80531 -94.94239 8978 ft 283 kts 296°
2026-04-25 23:10 29.81392 -94.96270 8738 ft 281 kts 296°
2026-04-25 23:10 29.82246 -94.98285 8463 ft 280 kts 296°
2026-04-25 23:10 29.83104 -95.00312 8180 ft 282 kts 296°
2026-04-25 23:11 29.83963 -95.02345 7910 ft 282 kts 296°
2026-04-25 23:11 29.84822 -95.04377 7655 ft 282 kts 296°
2026-04-25 23:11 29.85680 -95.06409 7388 ft 282 kts 295°
2026-04-25 23:11 29.86529 -95.08420 7126 ft 284 kts 295°
2026-04-25 23:12 29.87341 -95.10489 6848 ft 283 kts 289°
2026-04-25 23:12 29.87880 -95.12673 6599 ft 283 kts 282°
2026-04-25 23:12 29.88325 -95.14875 6343 ft 283 kts 282°
2026-04-25 23:12 29.88760 -95.17082 6080 ft 282 kts 281°
2026-04-25 23:13 29.89106 -95.19296 5937 ft 280 kts 273°
2026-04-25 23:13 29.89181 -95.21537 5938 ft 279 kts 268°
2026-04-25 23:13 29.89186 -95.23772 5940 ft 279 kts 269°
2026-04-25 23:13 29.89186 -95.26009 5950 ft 279 kts 268°
2026-04-25 23:14 29.89188 -95.28249 5999 ft 280 kts 268°
2026-04-25 23:14 29.89196 -95.30459 6005 ft 280 kts 268°
2026-04-25 23:14 29.89200 -95.32700 6005 ft 280 kts 269°
2026-04-25 23:14 29.89206 -95.34939 6004 ft 279 kts 269°
2026-04-25 23:15 29.89210 -95.37134 6001 ft 270 kts 269°
2026-04-25 23:15 29.89219 -95.39286 5998 ft 268 kts 269°
2026-04-25 23:15 29.89223 -95.41431 6004 ft 267 kts 269°
2026-04-25 23:15 29.89227 -95.43522 5996 ft 253 kts 268°
2026-04-25 23:16 29.89231 -95.45455 5992 ft 238 kts 268°
2026-04-25 23:16 29.89232 -95.47339 6003 ft 234 kts 267°
2026-04-25 23:16 29.89148 -95.49213 5997 ft 234 kts 264°
2026-04-25 23:16 29.89024 -95.51081 6000 ft 234 kts 264°
2026-04-25 23:17 29.88906 -95.52952 5993 ft 234 kts 265°
2026-04-25 23:17 29.88795 -95.54825 5994 ft 234 kts 264°
2026-04-25 23:17 29.88688 -95.56694 5996 ft 234 kts 265°
2026-04-25 23:17 29.88583 -95.58565 5992 ft 234 kts 265°
2026-04-25 23:18 29.88479 -95.60440 5985 ft 235 kts 265°
2026-04-25 23:18 29.88379 -95.62288 5991 ft 234 kts 264°
2026-04-25 23:18 29.88275 -95.64163 5978 ft 235 kts 265°
2026-04-25 23:18 29.88172 -95.66038 5980 ft 234 kts 265°
2026-04-25 23:19 29.88069 -95.67908 5984 ft 234 kts 264°
2026-04-25 23:19 29.87966 -95.69781 5987 ft 234 kts 265°
2026-04-25 23:19 29.87862 -95.71653 5992 ft 234 kts 263°
2026-04-25 23:19 29.87759 -95.73533 5994 ft 235 kts 264°
2026-04-25 23:20 29.87653 -95.75416 6001 ft 236 kts 264°
2026-04-25 23:20 29.87548 -95.77278 6005 ft 236 kts 264°
2026-04-25 23:20 29.87445 -95.79163 6003 ft 236 kts 264°
2026-04-25 23:20 29.87339 -95.81047 6010 ft 236 kts 263°
2026-04-25 23:21 29.87232 -95.82932 6011 ft 236 kts 264°
2026-04-25 23:21 29.87129 -95.84816 6014 ft 235 kts 264°
2026-04-25 23:21 29.87257 -95.86702 6009 ft 239 kts 284°
2026-04-25 23:21 29.88156 -95.88306 6004 ft 244 kts 319°
2026-04-25 23:22 29.89695 -95.89057 6001 ft 243 kts 356°
2026-04-25 23:22 29.91302 -95.88703 5990 ft 240 kts 30°
2026-04-25 23:22 29.92496 -95.87405 5999 ft 237 kts 60°
2026-04-25 23:23 29.94113 -95.84098 5991 ft 239 kts 50°
2026-04-25 23:23 29.95392 -95.82848 5959 ft 243 kts 37°
2026-04-25 23:23 29.96786 -95.81736 5956 ft 244 kts 37°
2026-04-25 23:23 29.97936 -95.80344 5955 ft 239 kts 63°
2026-04-25 23:24 29.98610 -95.78606 5973 ft 237 kts 72°
2026-04-25 23:24 29.99129 -95.76800 5967 ft 237 kts 81°
2026-04-25 23:24 29.99353 -95.74931 5944 ft 234 kts 89°
2026-04-25 23:24 29.99396 -95.73078 5827 ft 234 kts 92°
2026-04-25 23:25 29.99400 -95.71204 5497 ft 234 kts 93°
2026-04-25 23:25 29.99392 -95.69317 5098 ft 236 kts 94°
2026-04-25 23:25 29.99374 -95.67410 4706 ft 238 kts 93°
2026-04-25 23:25 29.99361 -95.66148 4489 ft 237 kts 94°
2026-04-25 23:26 29.99340 -95.63652 4252 ft 226 kts 94°
2026-04-25 23:26 29.99328 -95.61871 4109 ft 218 kts 94°
2026-04-25 23:26 29.99328 -95.60146 3806 ft 212 kts 92°
2026-04-25 23:26 29.99334 -95.58476 3521 ft 201 kts 92°
2026-04-25 23:27 29.99342 -95.56911 3276 ft 190 kts 94°
2026-04-25 23:27 29.99346 -95.55417 3150 ft 189 kts 94°
2026-04-25 23:27 29.99349 -95.53906 3086 ft 185 kts 96°
2026-04-25 23:27 29.99348 -95.52489 2892 ft 170 kts 95°
2026-04-25 23:28 29.99342 -95.51169 2661 ft 159 kts 94°
2026-04-25 23:28 29.99353 -95.49905 2539 ft 159 kts 95°
2026-04-25 23:28 29.99352 -95.48640 2344 ft 159 kts 95°
2026-04-25 23:28 29.99353 -95.47334 1972 ft 160 kts 96°
2026-04-25 23:29 29.99354 -95.46093 1852 ft 151 kts 96°
2026-04-25 23:29 29.99358 -95.44880 1770 ft 151 kts 95°
2026-04-25 23:29 29.99360 -95.43662 1582 ft 155 kts 95°
2026-04-25 23:29 29.99356 -95.42383 1067 ft 166 kts 95°
2026-04-25 23:30 29.99350 -95.41066 732 ft 162 kts 94°
2026-04-25 23:30 29.99344 -95.39792 531 ft 152 kts 94°
2026-04-25 23:30 29.99351 -95.38661 518 ft 148 kts 93°
2026-04-25 23:30 29.99366 -95.37478 524 ft 144 kts 94°
2026-04-25 23:31 29.99388 -95.36340 370 ft 142 kts 95°
2026-04-25 23:31 29.99409 -95.35621 110 ft 144 kts 104°
2026-04-25 23:31 29.99339 -95.34442 109 ft 91 kts 90°
2026-04-25 23:31 29.99335 -95.34099 109 ft 18 kts 92°
2026-04-25 23:32 29.99312 -95.33960 108 ft 18 kts 112°
2026-04-25 23:32 29.99271 -95.33864 111 ft 0 kts 119°
2026-04-25 23:32 29.98829 -95.33306 112 ft 0 kts 180°